IRIDIUM 47 [-] (25106 NORAD) Tracking and Keplerian Element Data

This shows tracking and keplerian element data for the satellite.

Feedback or suggestion? Click here.




ElementValue
Catalog25106
NameIRIDIUM 47 [-]
Epoch Orbit8381
Epoch Day244.38186805
Epoch Year2018
RAAN69.6259
Inclination86.362
Eccentricity0.0038238
Argument of Perigee107.3823
Mean Anonmoly254.9343
Mean Motion16.55539978
Decay Rate0.38403279
L11 25106U 97082C 18244.38186805 .38403279 -17456-5 14705-3 0 9993
L22 25106 86.3620 69.6259 0038238 107.3823 254.9343 16.55539978 83814

Live tracking and technical data element details for IRIDIUM 47 [-] (NORAD 25106). IRIDIUM 47 [-] can be tracked NOW for your location showing map with azimuth and elevation plus other details from your city location.

Track the satellite on the map from your city or location and see movement details for azimuth, elevation, latitude, longitude, range, height, and movement on the map or in text.







IsCatalogInMostPopularTable: catalog: 25106, numindb: 46
Update: records affected: 1



GetName: 25106 IRIDIUM 47 [-]

Hit Count: updated at: Sat, 15 Dec 2018 18:51:30 GMT